Location: Ebendorf
(52.1827°N, 11.5706°E)
Time: 09:09:26
(UTC+00:00)

Cosmos 371 Rocket - Pass Details

Date: 15 May 2021
Orbit: 684 x 699 km, 74.0° (Epoch: 20 June)

Event Time Altitude Azimuth Distance (km) Brightness Sun altitude
Exits shadow 01:54:07 13° 239° (WSW) 1,990 5.1 -10.5°
Maximum altitude 01:58:11 38° 305° (NW) 1,060 4.2 -10.1°
Drops below altitude 10° 02:02:47 10° 14° (NNE) 2,174 7.0 -9.6°
Sets 02:05:15 0° 23° (NNE) 3,097 8.2 -9.4°
